Stockport

United Kingdom     53˚24′41″N   2˚09′55″W
temp.,
°C
wind,
m/s
gust,
m/s
humid.,
%
clouds,
%
prec.,
mm/h
press.,
hPa
HPBL,
m
2 december, wed
wed200:00+6˚s128191 0.0 1025114
03:00+6˚ssw2588100 0.0 1022247
06:00+6˚ssw2587100 0.0 1020245
09:00+6˚ssw2684100 0.0 1018302
12:00+7˚wnw41076100 0.9 1015943
15:00+7˚wnw496670 0.1 10131311
18:00+6˚w496679 0.1 10111067
21:00+5˚sw597695 0.3 1009877
3 december, thu
thu300:00+6˚sw5106997 0.6 10041183
03:00+5˚sw4882100 0.5 999714
06:00+4˚ssw3689100 1.8 995486
09:00+3˚ssw4690100 0.8 992483
12:00+3˚sse3588100 1.5 987404
15:00+4˚se1282100 0.1 984351
18:00+3˚nne2479100 0.1 982278
21:00+3˚n3582100 0.0 981382
4 december, fri
fri400:00+3˚n2583100 0.1 980468
03:00+2˚nw2482100 0.0 979320
06:00+2˚nw2585100 0.1 980443
09:00+2˚nw287883 0.0 980526
12:00+4˚nw596445 0.0 980877
15:00+4˚wnw497490 0.0 9781004
18:00+3˚wsw258195 0.0 979536
21:00+3˚s3579100 0.1 980374
5 december, sat
sat500:00+3˚sse2588100 0.1 983342
03:00+2˚sse2680100 0.0 985428
06:00+2˚e267696 0.0 989285
09:00+2˚e377493 0.0 992305
12:00+4˚ene376368 0.0 994493
15:00+3˚ne36660 0.0 995401
18:00+2˚ne25783 0.0 997246
21:00+1˚ne12860 0.0 99867
6 december, sun
sun600:00+1˚ne22880 0.0 99863
03:00+1˚ne01880 0.0 99822
06:00+1˚wsw00890 0.0 99821
09:00+1˚sse11893 0.0 99822
12:00+3˚ssw12798 0.0 998210
15:00+3˚se238116 0.0 997184
18:00+1˚sse24848 0.0 997133
21:00+1˚se23800 0.0 998110